User: anonymous   Login
Location: Mentone
(34.5413°N, 85.5351°W)
Time: 22:20:52
(UTC-05:00)
Language:

Cosmos 1703 - Orbit

View from above orbital plane
View from above orbital plane
View from above satellite
View from above satellite

Ground track
Ground track

The orbit data is extracted from the following two-line orbital elements,

1 16262U 85108A   18147.48208735 +.00001016 +00000-0 +59391-4 0  9996
2 16262 082.4808 271.6946 0012291 164.1984 195.9632 15.10758327770875
Epoch (UTC): 27 May 2018 11:34:12
Eccentricity: 0.0012291
inclination: 82.4808°
perigee height: 525 km
apogee height: 542 km
right ascension of ascending node: 271.6946°
argument of perigee: 164.1984°
revolutions per day: 15.10758327
mean anomaly at epoch: 195.9632°
orbit number at epoch: 77087

The dashed part of the orbit path shows where the satellite is in the earth's shadow,  

DLR